Weather History for Park Rapids, MN

Change the Weather History Date:

Friday, September 19, 2014

  Actual Average Record
Temperature  
Mean Temperature 62 °F -  
Max Temperature 68 °F 67 °F 91 °F (1984)
Min Temperature 59 °F 44 °F 30 °F (1979)
Degree Days  
Heating Degree Days 2    
Growing Degree Days 12 (Base 50)    
Moisture  
Dew Point 58 °F    
Average Humidity 86    
Maximum Humidity 97    
Minimum Humidity 72    
Precipitation  
Precipitation 0.01 in - - ()
Sea Level Pressure  
Sea Level Pressure 29.69 in    
Wind  
Wind Speed 13 mph (SSW)    
Max Wind Speed 18 mph    
Max Gust Speed 24 mph    
Visibility 9 miles    
Events Rain    
Averages and records for this station are not official NWS values.
T = Trace of Precipitation, MM = Missing Value Source: NWS Daily Summary

Daily Weather History Graph

Daily Weather History Graph

Search for Another Location

Airport:

Trip Planner

Search our weather history database for the weather conditions in past years. The results will help you decide how hot, cold, wet, or windy it might be!

Date:

Astronomy

Sep. 19, 2014 Rise Set
Actual Time 7:03 AM CDT 7:23 PM CDT
Civil Twilight 6:32 AM CDT 7:54 PM CDT
Nautical Twilight 5:56 AM CDT 8:30 PM CDT
Astronomical Twilight 5:19 AM CDT 9:07 PM CDT
Moon 2:36 AM CDT (9/19) 5:04 PM CDT (9/19)
Length of Visible Light 13h 21m
Length of Day
12h 20m
Waning Crescent, 18% of the Moon is Illuminated
Sep 19
Waning Crescent
Sep 24
New
Oct 1
First Quarter
Oct 8
Full
Oct 15
Last Quarter

Hourly Weather History & Observations

Time (CDT) Temp. Dew Point Humidity Pressure Visibility Wind Dir Wind Speed Gust Speed Precip Events Conditions
12:53 AM 59.0 °F 53.1 °F 81% 29.85 in 10.0 mi SSE 13.8 mph - N/A   Clear
1:53 AM 59.0 °F 51.1 °F 75% 29.84 in 10.0 mi South 12.7 mph - N/A   Clear
2:53 AM 59.0 °F 51.1 °F 75% 29.84 in 10.0 mi South 10.4 mph - N/A   Scattered Clouds
3:53 AM 60.1 °F 52.0 °F 75% 29.80 in 10.0 mi South 15.0 mph - N/A   Partly Cloudy
4:53 AM 60.1 °F 51.1 °F 72% 29.79 in 10.0 mi South 16.1 mph 24.2 mph N/A   Clear
5:53 AM 60.1 °F 52.0 °F 75% 29.78 in 10.0 mi South 18.4 mph - N/A   Overcast
6:06 AM 60.8 °F 51.8 °F 72% 29.79 in 10.0 mi South 13.8 mph - N/A   Overcast
6:53 AM 60.1 °F 53.1 °F 78% 29.77 in 10.0 mi South 12.7 mph 23.0 mph N/A   Overcast
7:53 AM 60.8 °F 53.6 °F 77% 29.72 in 10.0 mi South 15.0 mph - N/A   Mostly Cloudy
8:00 AM 60.1 °F 54.0 °F 80% 29.72 in 10.0 mi South 12.7 mph - N/A   Scattered Clouds
8:53 AM 59.0 °F 55.9 °F 90% 29.67 in 7.0 mi SSE 16.1 mph - 0.01 in Rain Light Rain
9:11 AM 59.0 °F 55.9 °F 90% 29.72 in 8.0 mi SW 15.0 mph - 0.00 in   Overcast
9:18 AM 59.0 °F 55.9 °F 90% 29.73 in 8.0 mi SW 11.5 mph - 0.00 in   Overcast
9:53 AM 60.1 °F 57.0 °F 90% 29.71 in 8.0 mi South 13.8 mph - 0.00 in   Overcast
10:53 AM 61.0 °F 57.9 °F 90% 29.68 in 8.0 mi South 16.1 mph 19.6 mph 0.00 in   Overcast
11:44 AM 62.1 °F 59.0 °F 90% 29.69 in 8.0 mi SSW 9.2 mph - N/A   Overcast
11:53 AM 62.1 °F 59.0 °F 90% 29.68 in 7.0 mi South 9.2 mph - 0.00 in Rain Light Rain
12:53 PM 63.0 °F 60.1 °F 90% 29.68 in 8.0 mi SSW 12.7 mph - 0.00 in   Overcast
1:53 PM 64.0 °F 61.0 °F 90% 29.65 in 8.0 mi South 10.4 mph - 0.00 in   Overcast
2:37 PM 64.9 °F 61.0 °F 87% 29.64 in 10.0 mi SSW 15.0 mph - N/A   Overcast
2:53 PM 64.9 °F 61.0 °F 87% 29.63 in 10.0 mi SSW 8.1 mph - N/A   Overcast
3:03 PM 64.9 °F 61.0 °F 87% 29.63 in 10.0 mi SSW 12.7 mph - N/A   Overcast
3:53 PM 64.9 °F 62.1 °F 90% 29.61 in 10.0 mi SSW 12.7 mph - N/A   Overcast
4:53 PM 66.0 °F 62.1 °F 87% 29.60 in 10.0 mi SSW 13.8 mph - N/A   Overcast
5:07 PM 66.9 °F 62.1 °F 84% 29.60 in 10.0 mi SSW 13.8 mph 20.7 mph N/A   Overcast
5:53 PM 66.9 °F 62.1 °F 84% 29.62 in 10.0 mi SW 11.5 mph - N/A   Overcast
6:25 PM 66.9 °F 62.1 °F 84% 29.62 in 10.0 mi SSW 9.2 mph - N/A   Overcast
6:53 PM 66.0 °F 63.0 °F 90% 29.62 in 10.0 mi SSW 6.9 mph - N/A   Overcast
7:46 PM 64.0 °F 62.1 °F 93% 29.62 in 10.0 mi South 8.1 mph - N/A   Scattered Clouds
7:53 PM 64.0 °F 62.1 °F 93% 29.62 in 9.0 mi South 8.1 mph - N/A   Partly Cloudy
8:53 PM 63.0 °F 62.1 °F 97% 29.62 in 7.0 mi South 5.8 mph - N/A   Clear
9:53 PM 64.0 °F 63.0 °F 96% 29.62 in 7.0 mi SSW 4.6 mph - N/A   Clear
10:53 PM 64.9 °F 63.0 °F 93% 29.61 in 10.0 mi WSW 9.2 mph - N/A   Clear
11:53 PM 64.0 °F 61.0 °F 90% 29.61 in 10.0 mi West 11.5 mph - N/A   Clear